GW0870 Weather Reports


Display with metric or nautical units.
time (UTC)temp
F
wind
direction
speed
MPH
gust
MPH
rain 1hr
in
rain 24hr
in
rain mn
in
humidity
%
barometer
mb
20260510213046 83 245 1.0 5.0 0.00 0.00 0.00 29 1014.7
20260510211543 84 219 1.0 4.0 0.00 0.00 0.00 28 1014.7
20260510210050 84 237 0.0 4.0 0.00 0.00 0.00 29 1014.6
20260510204549 84 139 1.0 4.0 0.00 0.00 0.00 29 1014.8
20260510203046 83 0 0.0 6.0 0.00 0.00 0.00 29 1014.7
20260510201543 83 205 3.0 7.0 0.00 0.00 0.00 29 1014.9
20260510200043 84 88 0.0 2.0 0.00 0.00 0.00 28 1015.0
20260510194539 85 276 1.0 4.0 0.00 0.00 0.00 28 1015.2
20260510193055 84 131 2.0 4.0 0.00 0.00 0.00 30 1015.0
20260510191541 83 225 1.0 4.0 0.00 0.00 0.00 29 1015.3
20260510190045 82 98 2.0 6.0 0.00 0.00 0.00 31 1015.3
20260510184547 82 130 1.0 6.0 0.00 0.00 0.00 27 1015.5
20260510183050 83 0 0.0 6.0 0.00 0.00 0.00 36 1015.5
20260510181542 82 49 2.0 5.0 0.00 0.00 0.00 30 1015.6
20260510180048 83 154 1.0 4.0 0.00 0.00 0.00 30 1015.7
20260510174547 82 0 0.0 4.0 0.00 0.00 0.00 32 1015.9
20260510173053 82 0 1.0 5.0 0.00 0.00 0.00 30 1016.0
20260510171557 82 198 0.0 3.0 0.00 0.00 0.00 35 1016.4
20260510170100 81 342 0.0 4.0 0.00 0.00 0.00 34 1016.2
20260510164556 82 65 0.0 5.0 0.00 0.00 0.00 32 1016.3
20260510163047 81 330 2.0 5.0 0.00 0.00 0.00 34 1016.3
20260510161551 81 300 0.0 4.0 0.00 0.00 0.00 35 1016.4
20260510160057 81 13 0.0 4.0 0.00 0.00 0.00 39 1016.4
20260510154551 80 0 0.0 3.0 0.00 0.00 0.00 41 1016.3
20260510153040 78 26 0.0 4.0 0.00 0.00 0.00 41 1016.4
20260510151546 78 352 0.0 4.0 0.00 0.00 0.00 42 1016.4
20260510150045 77 0 1.0 4.0 0.00 0.00 0.00 49 1016.5
20260510144544 77 0 0.0 2.0 0.00 0.00 0.00 52 1016.6
20260510143050 75 216 0.0 2.0 0.00 0.00 0.00 57 1016.6
20260510141551 74 31 0.0 4.0 0.00 0.00 0.00 61 1016.5
20260510140048 73 59 0.0 2.0 0.00 0.00 0.00 64 1016.5
20260510134547 72 0 1.0 3.0 0.00 0.00 0.00 70 1016.4
20260510133058 71 9 0.0 2.0 0.00 0.00 0.00 73 1016.3
20260510131602 69 0 0.0 1.0 0.00 0.00 0.00 83 1016.4
20260510130047 64 0 0.0 0.0 0.00 0.00 0.00 94 1016.4
20260510124608 63 0 0.0 0.0 0.00 0.00 0.00 96 1016.3
20260510123049 61 0 0.0 0.0 0.00 0.00 0.00 96 1016.2
20260510121547 58 0 0.0 0.0 0.00 0.00 0.00 96 1015.9
20260510120047 56 0 0.0 0.0 0.00 0.00 0.00 95 1015.3
20260510114545 55 0 0.0 0.0 0.00 0.00 0.00 95 1015.2
20260510113050 55 0 0.0 0.0 0.00 0.00 0.00 95 1015.2
20260510111603 54 0 0.0 0.0 0.00 0.00 0.00 95 1015.0
20260510110042 53 0 0.0 0.0 0.00 0.00 0.00 94 1014.7
20260510104601 53 0 0.0 0.0 0.00 0.00 0.00 94 1014.4
20260510103046 54 0 0.0 0.0 0.00 0.00 0.00 94 1014.1
20260510101545 54 0 0.0 0.0 0.00 0.00 0.00 94 1014.0
20260510100043 55 0 0.0 0.0 0.00 0.00 0.00 94 1014.0
20260510094547 55 0 0.0 0.0 0.00 0.00 0.00 94 1013.8
20260510093049 55 0 0.0 1.0 0.00 0.00 0.00 94 1013.5
20260510091555 55 0 0.0 0.0 0.00 0.00 0.00 94 1013.4
20260510090100 56 0 0.0 0.0 0.00 0.00 0.00 94 1013.2
20260510084554 56 0 0.0 0.0 0.00 0.00 0.00 94 1013.1
20260510083043 56 0 0.0 0.0 0.00 0.00 0.00 94 1012.9
20260510081550 56 0 0.0 0.0 0.00 0.00 0.00 93 1012.7
20260510080042 56 0 0.0 0.0 0.00 0.00 0.00 94 1012.7
20260510074550 57 0 0.0 0.0 0.00 0.00 0.00 93 1012.7
20260510073051 57 0 0.0 0.0 0.00 0.00 0.00 93 1012.4
20260510071545 57 0 0.0 0.0 0.00 0.00 0.00 93 1012.4
20260510070048 58 0 0.0 0.0 0.00 0.00 0.00 93 1012.4
20260510064600 58 0 0.0 0.0 0.00 0.00 0.00 94 1012.4
20260510063052 57 0 0.0 1.0 0.00 0.00 0.00 93 1012.5
20260510061552 58 0 0.0 0.0 0.00 0.00 0.00 93 1012.3
20260510060051 58 0 0.0 0.0 0.00 0.00 0.00 93 1012.4
20260510054546 58 0 0.0 0.0 0.00 0.00 0.00 93 1012.4
20260510053050 58 0 0.0 0.0 0.00 0.00 0.00 93 1012.5
20260510051601 58 0 0.0 0.0 0.00 0.00 0.00 92 1012.5
20260510050049 58 0 0.0 0.0 0.00 0.00 0.00 92 1012.9
20260510044557 59 0 0.0 0.0 0.00 0.00 0.00 92 1012.8
20260510043046 59 0 0.0 0.0 0.00 0.00 0.00 92 1012.8
20260510041550 59 0 0.0 0.0 0.00 0.00 0.00 92 1012.9
20260510040046 59 0 0.0 0.0 0.00 0.00 0.00 92 1012.8
20260510034546 59 0 0.0 0.0 0.00 0.00 0.00 91 1012.9
20260510033042 60 0 0.0 0.0 0.00 0.00 0.00 91 1013.0
20260510031547 60 0 0.0 0.0 0.00 0.00 0.00 91 1012.9
20260510030043 61 0 0.0 0.0 0.00 0.00 0.00 90 1012.8
20260510024551 61 0 0.0 0.0 0.00 0.00 0.00 90 1012.8
20260510023043 61 0 0.0 0.0 0.00 0.00 0.00 89 1012.7
20260510021542 62 0 0.0 0.0 0.00 0.00 0.00 88 1012.7
20260510020040 62 0 0.0 0.0 0.00 0.00 0.00 88 1012.5
20260510014540 63 0 0.0 0.0 0.00 0.00 0.00 87 1012.4
20260510013053 63 0 0.0 1.0 0.00 0.00 0.00 86 1012.0
20260510011546 64 0 0.0 0.0 0.00 0.00 0.00 84 1011.9
20260510010048 65 0 0.0 0.0 0.00 0.00 0.00 81 1011.7
20260510004547 66 0 0.0 0.0 0.00 0.00 0.00 80 1011.3
20260510003057 67 0 0.0 2.0 0.00 0.00 0.00 79 1011.0
20260510001551 68 178 0.0 0.0 0.00 0.00 0.00 77 1010.8
20260510000058 69 162 0.0 0.0 0.00 0.00 0.00 75 1010.7
20260509234602 70 0 0.0 1.0 0.00 0.00 0.00 73 1010.5
20260509233054 70 141 0.0 3.0 0.00 0.00 0.00 72 1010.6
20260509231601 70 246 1.0 6.0 0.00 0.00 0.00 71 1010.6
20260509224551 72 0 1.0 6.0 0.00 0.00 0.00 69 1010.1
20260509223048 72 205 1.0 6.0 0.00 0.00 0.00 68 1010.2
20260509221546 73 301 3.0 10.0 0.00 0.00 0.00 65 1010.0
20260509220050 73 165 3.0 7.0 0.00 0.00 0.00 67 1009.9
20260509214545 73 102 2.0 7.0 0.00 0.00 0.00 67 1009.8